데이터베이스 개발자 질문과 답변 게시판

데이터베이스 개발/운영 관련 질문과 답변을 올리는 게시판입니다. 궁금하신 내용을 이곳에서 문의하시면 SQLER 분들의 답변을 받으실 수 있습니다. 문의를 하실때에는 최근 작업하신 특이 사항이나, 장애 발생 전 상황을 상세히 올려 주시면 답글을 적어주시는 SQLER분들의 답변이 더 정확할 수 있으니 도움 되시길 바랍니다. 쿼리 문의일 경우, 실제 문제가 재현되는 테이블생성, 샘플데이터 생성 쿼리를 함께 올려 주시면 더 빠르고 정확한 쿼리 문의 응답이 가능합니다.

Time    Temperature        Humidity
2020-12-26 01:01:03    30    40
2020-12-26 01:01:13    31    40.5
2020-12-26 01:01:18    31    40.3
2020-12-26 01:01:21    30    41.3

...

2020-12-26 02:01:03    30    40
2020-12-26 02:01:13    31    40.5
2020-12-26 02:01:18    31    40.3
2020-12-26 02:01:21    30    41.3

 

이런씩으로 온/습도 값을 많이 받고 있습니다.
(디바이스의 전원이 꺼져 있는 경우는 값이 누락됩니다.)

여기서 하고 싶은것은
특정일 기간 동안

5초 간격/10초 간격/1분 간격/5분 간격/10분 간격/1시간 간격으로 조회를 하고 싶습니다.
Group by로 묶어버리니깐 최대,최소,평균으로 나와버리는데...

고수님들 방법 좀 알려주세요..

No. Subject Author Date Views
10682 mssql 여러개의 체크박스가 있는 경우에 컬럼은 어떻게 만드시나요? 카루카루 2021.01.19 14
10681 MSSQL PIVOT 질문 입니다. 우롱 2021.01.13 37
10680 DB 락 질문입니다. [2] 희망나라 2021.01.07 68
10679 HAVING절에 ANY나SOME이나ALL을 쓸수가있나요 ? [1] 흑곰 2021.01.04 60
10678 파라미터 조건에 따라서 조인문을 분깃해주고 싶은데요... [1] 아싸라비아콜롬비아 2021.01.02 178
» [질문] 쿼리 작성 중인데..막히는 부분이 있습니다..도움 좀 주세요.. BusyRun 2020.12.26 424
10676 외부 조인 연산자 ("*=" 또는 "=*") 문의 [1] 완전초짜 2020.12.25 74
10675 view를 주기적으로 recompile해야 정상작동합니다. [1] 꼬까 2020.12.16 229
10674 쿼리 질문 드립니다. [1] 청주아범 2020.12.14 139
10673 LINKED DB, WHERE 절 문의 드립니다.. 사히스 2020.12.09 114
10672 mssql sa비밀번호가 계속 바뀌는 문제에 대한 질문입니다. [1] qlalfdlqslek 2020.12.08 118
10671 검색 데이터 중 없는 데이터 찾기(?) 도와주실분 ㅠ [2] yong s ql을 잘하고싶다 2020.12.08 232
10670 IP 대역 비교하는 방법 [1] Mikha 2020.12.04 189
10669 SQL Server 인증을 통합 인증으로 [1] Mikha 2020.11.26 187
10668 SQL 2000버전을 2016으로 버전업할때 비밀번호 컬럼의 값 변경에 대해서 iticdl 2020.11.20 1262
10667 sql 2014 쿼리 문의 입니다. [1] 민성 2020.11.18 1035
10666 쿼리문 질문 드립니다. [1] One이 2020.11.18 294
10665 SQL2000 -> SQL2019 질문드립니다 [5] 구티 2020.11.17 512
10664 혹시 오라클에서 mssql로 변환할때요 [1] 아싸라비아콜롬비아 2020.11.16 262
10663 sql 쿼리 관련 질문 드립니다. [3] 코딩왕김탁구 2020.11.15 296





XE Login